[[{"header":{"parameterUnit":"m.s-1","parameterCategory":2,"la1":30.2992,"la2":30.254,"lo1":-89.0895,"lo2":-89.0443,"dy":0.0025,"dx":0.0025,"nx":19,"ny":19,"refTime":"2026-03-09T21:00:00:Z","depth":"0","parameterNumber":2,"parameterNumberName":"U-component_of_CURRENTS"},"data":[0,0,0,0.1389,0.139,0.1446,0.1446,0.1484,0.1485,0,0,0,0,0,0,0,0,0,0,0,0.1364,0.1365,0.1389,0.1391,0.1446,0.1446,0.1484,0.1485,0,0,0,0,0,0,0,0,0,0,0,0.1364,0.1365,0.1365,0.1391,0.1446,0.1446,0.1484,0.1449,0,0,0,0,0,0,0,0,0,0,0.1398,0.1378,0.1364,0.1365,0.1391,0.1446,0.1446,0.1447,0.1451,0.1452,0,0.1465,0,0.1481,0.1487,0.1487,0,0,0,0.1383,0.1375,0.1397,0.1365,0.1392,0.1446,0.1419,0.145,0.1454,0.1457,0.1465,0.1467,0.1482,0.1488,0.1488,0.1553,0.1554,0,0,0.138,0.1366,0.1395,0.14,0.1411,0.1417,0.1421,0.1452,0.1453,0.1465,0.1468,0.1482,0.1488,0.1488,0.1553,0.1553,0,0,0,0.1376,0.1364,0.1386,0.1398,0.1414,0.1419,0.1423,0.1452,0.1461,0.1469,0.1483,0.1488,0.1488,0.1552,0.1553,0.1635,0,0,0,0.1374,0.1363,0.1385,0.1376,0.1414,0.1438,0.1422,0.1459,0.1463,0.1483,0.1488,0.1489,0.1552,0.1553,0.1632,0.1661,0,0,0,0.1361,0.1361,0.1371,0.1375,0.1404,0.1438,0.1449,0.146,0.1472,0.1487,0.1489,0.1551,0.1553,0.1629,0.1656,0.1741,0,0,0,0.134,0.1358,0.137,0.1396,0.1404,0.1448,0.1449,0.148,0.1495,0.1488,0.1552,0.1553,0.1628,0.1653,0.1737,0.1744,0.1762,0,0,0.1352,0.1359,0.1376,0.1389,0.1428,0.1439,0.1498,0.1519,0.1512,0.1537,0.1538,0.1633,0.1655,0.174,0.1804,0.1821,0,0,0,0.1373,0.138,0.1395,0.1421,0.1456,0.1506,0.1527,0.1555,0.1603,0.1528,0.1631,0.1642,0.1694,0.1689,0.1703,0.175,0.1558,0.1558,0.1558,0.1346,0.1378,0.1405,0.1448,0.1483,0.1555,0.1612,0.1652,0.1637,0.1679,0.1709,0.1825,0.182,0.1831,0.188,0.1711,0.1711,0.1712,0.1712,0.135,0.1378,0.1413,0.145,0.1517,0.1573,0.1689,0.1725,0.1839,0.1785,0.1832,0.1774,0.185,0.1897,0.1717,0.1716,0.1715,0.1715,0.1715,0.1324,0.1353,0.1367,0.1436,0.1513,0.1605,0.1727,0.1829,0.1896,0.1965,0.1973,0.1971,0.2015,0.2001,0.2001,0.2002,0.2002,0.2003,0.2003,0.1315,0.1337,0.136,0.1437,0.1475,0.1588,0.177,0.1866,0.2015,0.2062,0.2062,0.2061,0.1913,0.1905,0.2011,0.2009,0.2008,0.2008,0.2007,0.1337,0.1332,0.1364,0.1387,0.148,0.1552,0.1727,0.194,0.2075,0.2147,0.2233,0.2121,0.21,0.2087,0.2082,0.2228,0.2228,0.2228,0.2228,0.1342,0.1349,0.1361,0.1376,0.1437,0.1532,0.1659,0.1886,0.2178,0.2311,0.2353,0.2288,0.2277,0.2262,0.2245,0.2242,0.2425,0.2426,0.2426,0.1366,0.1365,0.1357,0.1357,0.1397,0.1484,0.1579,0.1783,0.2224,0.2439,0.2428,0.242,0.2325,0.2304,0.227,0.2244,0.2233,0,0]},{"header":{"parameterUnit":"m.s-1","parameterCategory":2,"la1":30.2992,"la2":30.254,"lo1":-89.0895,"lo2":-89.0443,"dy":0.0025,"dx":0.0025,"nx":19,"ny":19,"refTime":"2026-03-09T21:00:00:Z","depth":"0","parameterNumber":3,"parameterNumberName":"V-component_of_CURRENTS"},"data":[0,0,0,-0.0036,-0.0036,-0.009,-0.009,-0.0179,-0.018,0,0,0,0,0,0,0,0,0,0,0,-0.0015,-0.0015,-0.0036,-0.0036,-0.0089,-0.009,-0.0179,-0.018,0,0,0,0,0,0,0,0,0,0,0,-0.0015,-0.0015,-0.0015,-0.0037,-0.0089,-0.009,-0.0179,-0.0136,0,0,0,0,0,0,0,0,0,0,-0.0083,-0.0058,-0.0015,-0.0015,-0.0037,-0.0089,-0.009,-0.0134,-0.0139,-0.0158,0,-0.0156,0,-0.0166,-0.0185,-0.0186,0,0,0,-0.0049,-0.0054,-0.0065,-0.0015,-0.0037,-0.0089,-0.0069,-0.0137,-0.0142,-0.0164,-0.0157,-0.0161,-0.0168,-0.0186,-0.0186,-0.0191,-0.019,0,0,-0.0046,-0.0032,-0.0061,-0.0068,-0.0039,-0.0067,-0.007,-0.014,-0.0143,-0.0158,-0.0163,-0.0169,-0.0186,-0.0187,-0.0191,-0.0191,0,0,0,-0.0029,-0.003,-0.004,-0.0065,-0.0071,-0.0068,-0.0072,-0.014,-0.0142,-0.0164,-0.017,-0.0187,-0.0188,-0.0192,-0.0191,-0.0028,0,0,0,-0.0028,-0.0019,-0.0038,-0.0032,-0.0069,-0.0103,-0.007,-0.0137,-0.0145,-0.017,-0.0187,-0.0189,-0.0193,-0.0191,-0.0034,0.0094,0,0,0,-0.0015,-0.0018,-0.002,-0.0031,-0.0048,-0.0102,-0.0109,-0.0139,-0.0149,-0.0186,-0.0189,-0.0193,-0.0192,-0.0039,0.0083,0.0187,0,0,0,-0.0007,0.0019,-0.0019,0.0004,-0.0047,-0.0044,-0.0108,-0.0125,-0.0149,-0.0187,-0.0192,-0.0191,-0.004,0.0076,0.018,0.023,0.0267,0,0,0.0036,0.0024,0.0039,0.0004,0.0031,-0.0039,-0.0002,-0.0068,-0.0136,-0.0175,-0.0175,-0.0032,0.0082,0.0186,0.0305,0.0341,0,0,0,0.006,0.0074,0.0074,0.0076,0.0057,0.0085,0.0001,-0.0012,-0.0031,-0.0143,-0.0051,0.0016,0.0077,0.0089,0.0118,-0.0062,-0.0185,-0.0185,-0.0185,0.0138,0.0128,0.0175,0.017,0.0175,0.0155,0.0189,0.0155,0.0043,0.0068,0.0133,0.0309,0.0321,0.0344,0.0157,0.0082,0.0083,0.0083,0.0084,0.0244,0.0319,0.0281,0.0336,0.0348,0.038,0.0384,0.0346,0.0402,0.0272,0.032,0.0241,0.0385,0.0174,0.0094,0.0092,0.0091,0.009,0.0089,0.0341,0.0402,0.0402,0.0512,0.0588,0.0583,0.0726,0.0685,0.0594,0.0657,0.0624,0.0621,0.0452,0.0654,0.0655,0.0656,0.0657,0.0658,0.0658,0.0516,0.0523,0.0644,0.073,0.0811,0.0923,0.0962,0.0994,0.0955,0.0852,0.0851,0.0496,0.0483,0.048,0.0674,0.0672,0.067,0.0668,0.0667,0.0757,0.0759,0.0917,0.1011,0.1186,0.1308,0.1315,0.1325,0.1321,0.1303,0.0838,0.0936,0.09,0.0873,0.0878,0.1165,0.1165,0.1165,0.1165,0.0944,0.0955,0.1149,0.1294,0.1465,0.149,0.163,0.1575,0.1273,0.1074,0.094,0.0769,0.0757,0.0699,0.0677,0.0671,0.0899,0.0898,0.0898,0.1142,0.1149,0.1297,0.1385,0.1556,0.1646,0.1727,0.1687,0.1208,0.0863,0.0689,0.0701,0.0415,0.041,0.0279,0.0263,0.0238,0,0]}],[{"header":{"parameterUnit":"m.s-1","parameterCategory":2,"la1":30.2992,"la2":30.254,"lo1":-89.0895,"lo2":-89.0443,"dy":0.0025,"dx":0.0025,"nx":19,"ny":19,"refTime":"2026-03-09T21:00:00:Z","depth":"2","parameterNumber":2,"parameterNumberName":"U-component_of_CURRENTS"},"data":[0,0,0,0.1447,0.1449,0.1524,0.1524,0.1581,0.1582,0,0,0,0,0,0,0,0,0,0,0,0.1415,0.1415,0.1447,0.1449,0.1524,0.1524,0.1581,0.1582,0,0,0,0,0,0,0,0,0,0,0,0.1415,0.1415,0.1415,0.145,0.1524,0.1524,0.1581,0.1534,0,0,0,0,0,0,0,0,0,0,0.1466,0.1446,0.1415,0.1415,0.145,0.1524,0.1524,0.1532,0.1537,0.1537,0,0.1547,0,0.1568,0.1585,0.1585,0,0,0,0.1448,0.1443,0.1459,0.1416,0.1451,0.1524,0.149,0.1535,0.1541,0.1543,0.1548,0.155,0.1569,0.1585,0.1585,0.165,0.1651,0,0,0.1444,0.1432,0.1456,0.1463,0.1467,0.1488,0.1492,0.1539,0.1544,0.1548,0.1552,0.157,0.1586,0.1586,0.165,0.1651,0,0,0,0.1433,0.1429,0.1446,0.146,0.1478,0.149,0.1495,0.1542,0.1547,0.1553,0.1571,0.1586,0.1586,0.165,0.165,0.1662,0,0,0,0.143,0.1423,0.1444,0.1438,0.1478,0.1518,0.1497,0.1543,0.155,0.1571,0.1586,0.1587,0.1649,0.165,0.1661,0.1701,0,0,0,0.1412,0.1421,0.1428,0.1437,0.1471,0.1518,0.1526,0.1545,0.1561,0.1585,0.1587,0.1649,0.165,0.166,0.1698,0.1765,0,0,0,0.1399,0.1407,0.1428,0.1451,0.147,0.1522,0.1526,0.157,0.1593,0.1586,0.1649,0.165,0.166,0.1696,0.1763,0.1703,0.171,0,0,0.14,0.1407,0.1423,0.1443,0.1481,0.1512,0.1561,0.1592,0.1605,0.163,0.1632,0.1662,0.1698,0.1765,0.1754,0.176,0,0,0,0.1418,0.1427,0.1443,0.1474,0.1513,0.1558,0.1595,0.1616,0.1655,0.1624,0.1676,0.17,0.1742,0.17,0.1705,0.1654,0.1654,0.1654,0.1654,0.1389,0.1422,0.1446,0.1491,0.153,0.1593,0.1638,0.1675,0.1673,0.1698,0.1719,0.1796,0.1749,0.1752,0.1712,0.1712,0.1712,0.1712,0.1712,0.1394,0.1421,0.1454,0.1491,0.154,0.159,0.1679,0.1701,0.179,0.1757,0.1795,0.1726,0.1758,0.1713,0.1713,0.1713,0.1713,0.1713,0.1713,0.1373,0.1399,0.1413,0.1484,0.153,0.1606,0.1696,0.1777,0.1822,0.1868,0.1851,0.185,0.1827,0.1891,0.1891,0.1892,0.1892,0.1893,0.1893,0.1371,0.1388,0.1428,0.1496,0.1532,0.1613,0.1739,0.1814,0.1895,0.1897,0.1897,0.1857,0.1852,0.184,0.19,0.1899,0.1898,0.1897,0.1897,0.1391,0.1407,0.1449,0.1484,0.1564,0.158,0.1709,0.1809,0.1916,0.1938,0.1916,0.1914,0.192,0.1914,0.1905,0.1979,0.1979,0.1979,0.1979,0.14,0.1422,0.1445,0.1476,0.1537,0.1555,0.1558,0.1629,0.1777,0.1814,0.1821,0.1726,0.1727,0.1718,0.1717,0.1701,0.1723,0.1722,0.1722,0.1417,0.1416,0.1403,0.1431,0.1493,0.1473,0.1397,0.1387,0.155,0.1709,0.1747,0.1968,0.1842,0.1838,0.1833,0.1828,0.1807,0,0]},{"header":{"parameterUnit":"m.s-1","parameterCategory":2,"la1":30.2992,"la2":30.254,"lo1":-89.0895,"lo2":-89.0443,"dy":0.0025,"dx":0.0025,"nx":19,"ny":19,"refTime":"2026-03-09T21:00:00:Z","depth":"2","parameterNumber":3,"parameterNumberName":"V-component_of_CURRENTS"},"data":[0,0,0,-0.0149,-0.0149,-0.0206,-0.0206,-0.0298,-0.0299,0,0,0,0,0,0,0,0,0,0,0,-0.0127,-0.0127,-0.0149,-0.015,-0.0206,-0.0206,-0.0298,-0.0299,0,0,0,0,0,0,0,0,0,0,0,-0.0127,-0.0127,-0.0127,-0.015,-0.0206,-0.0206,-0.0298,-0.0254,0,0,0,0,0,0,0,0,0,0,-0.0198,-0.0174,-0.0127,-0.0127,-0.015,-0.0206,-0.0206,-0.0252,-0.0257,-0.0274,0,-0.0271,0,-0.0282,-0.0304,-0.0305,0,0,0,-0.0164,-0.017,-0.0179,-0.0127,-0.015,-0.0205,-0.0185,-0.0255,-0.026,-0.0281,-0.0272,-0.0276,-0.0284,-0.0305,-0.0305,-0.0316,-0.0315,0,0,-0.0161,-0.0149,-0.0175,-0.0182,-0.015,-0.0183,-0.0186,-0.0258,-0.0262,-0.0273,-0.0278,-0.0285,-0.0305,-0.0306,-0.0316,-0.0315,0,0,0,-0.0142,-0.0146,-0.0154,-0.0178,-0.0184,-0.0184,-0.0188,-0.0259,-0.0259,-0.0279,-0.0286,-0.0306,-0.0307,-0.0317,-0.0316,-0.0234,0,0,0,-0.0141,-0.0134,-0.0152,-0.0147,-0.0182,-0.022,-0.0187,-0.0254,-0.0262,-0.0286,-0.0306,-0.0308,-0.0317,-0.0316,-0.0237,-0.0177,0,0,0,-0.0127,-0.0134,-0.0134,-0.0146,-0.0163,-0.0219,-0.0224,-0.0256,-0.0266,-0.0305,-0.0308,-0.0317,-0.0316,-0.024,-0.0183,-0.0148,0,0,0,-0.0123,-0.0101,-0.0133,-0.0114,-0.0162,-0.0165,-0.0224,-0.0245,-0.0271,-0.0306,-0.0317,-0.0316,-0.0241,-0.0187,-0.0151,-0.0172,-0.0158,0,0,-0.0088,-0.0097,-0.0084,-0.0113,-0.0093,-0.0159,-0.0144,-0.021,-0.026,-0.0299,-0.0299,-0.0236,-0.0184,-0.0149,-0.0107,-0.0094,0,0,0,-0.0068,-0.0057,-0.0056,-0.0056,-0.0074,-0.0087,-0.0149,-0.0172,-0.0209,-0.0269,-0.0236,-0.0205,-0.0186,-0.0206,-0.0196,-0.031,-0.0311,-0.0311,-0.0311,-0.0012,-0.0018,0.0009,0.0002,0.0,-0.0043,-0.0051,-0.0095,-0.0155,-0.0152,-0.0139,-0.0053,-0.0074,-0.0066,-0.0154,-0.0153,-0.0153,-0.0153,-0.0152,0.0048,0.0059,0.006,0.0087,0.0071,0.0081,0.0043,0.0006,0.0007,-0.0057,-0.0044,-0.0119,-0.005,-0.0146,-0.0147,-0.0148,-0.0149,-0.0149,-0.015,0.0076,0.0081,0.0104,0.014,0.0178,0.0163,0.0192,0.0164,0.0097,0.0116,0.0062,0.0059,0.0002,0.011,0.011,0.011,0.0111,0.0111,0.0111,0.009,0.0112,0.016,0.0204,0.0247,0.0292,0.0292,0.0283,0.0234,0.017,0.0168,0.0035,0.0027,0.0016,0.0118,0.0117,0.0116,0.0115,0.0115,0.0089,0.0127,0.0178,0.0228,0.0331,0.039,0.0394,0.0361,0.0343,0.0317,0.0185,0.0181,0.0153,0.0142,0.0134,0.0261,0.0261,0.0261,0.0261,0.0091,0.0115,0.0184,0.0261,0.0348,0.0424,0.0456,0.0442,0.0365,0.0299,0.0298,0.0231,0.0224,0.0195,0.0183,0.0174,0.0311,0.0311,0.0311,0.0079,0.0099,0.0127,0.0221,0.0343,0.0427,0.0484,0.0532,0.0409,0.0315,0.0328,0.026,0.0152,0.0145,0.0088,0.0075,0.0053,0,0]}],[{"header":{"parameterUnit":"m.s-1","parameterCategory":2,"la1":30.2992,"la2":30.254,"lo1":-89.0895,"lo2":-89.0443,"dy":0.0025,"dx":0.0025,"nx":19,"ny":19,"refTime":"2026-03-09T21:00:00:Z","depth":"4","parameterNumber":2,"parameterNumberName":"U-component_of_CURRENTS"},"data":[0,0,0,0.0877,0.088,0.0986,0.0986,0.1081,0.1082,0,0,0,0,0,0,0,0,0,0,0,0.0833,0.0834,0.0877,0.088,0.0986,0.0986,0.1081,0.1082,0,0,0,0,0,0,0,0,0,0,0,0.0833,0.0834,0.0835,0.088,0.0986,0.0987,0.108,0.1009,0,0,0,0,0,0,0,0,0,0,0.0911,0.0885,0.0833,0.0835,0.0881,0.0986,0.0987,0.1006,0.1014,0.1022,0,0.1041,0,0.1069,0.1087,0.1088,0,0,0,0.0874,0.0879,0.0903,0.0835,0.0882,0.0986,0.0937,0.1011,0.1019,0.1032,0.1043,0.1047,0.1071,0.1088,0.1088,0.119,0.1191,0,0,0.0869,0.0857,0.0897,0.0908,0.0913,0.0933,0.094,0.1016,0.1028,0.1043,0.105,0.1072,0.1089,0.1089,0.119,0.119,0,0,0,0.0855,0.0853,0.0876,0.0904,0.093,0.0936,0.0944,0.1024,0.1031,0.1051,0.1073,0.1089,0.109,0.1189,0.119,0.1229,0,0,0,0.0852,0.0846,0.0873,0.0868,0.0929,0.0987,0.0951,0.1025,0.1036,0.1073,0.1089,0.1091,0.1189,0.119,0.1227,0.1231,0,0,0,0.0828,0.0844,0.0855,0.0867,0.0916,0.0987,0.0998,0.1028,0.1049,0.1088,0.1091,0.1188,0.1189,0.1225,0.1228,0.1258,0,0,0,0.0812,0.0831,0.0855,0.0887,0.0915,0.0979,0.0998,0.1055,0.109,0.1089,0.1189,0.119,0.1224,0.1226,0.1256,0.11,0,0,0,0.0823,0.0833,0.085,0.0874,0.0933,0.0964,0.1038,0.1091,0.1108,0.1158,0.1161,0.1227,0.1228,0.1257,0.1166,0,0,0,0,0.0845,0.0858,0.0879,0.0924,0.0972,0.1037,0.1091,0.1122,0.119,0.1136,0.1239,0.1238,0.1255,0.116,0.1195,0.1195,0.1195,0.1195,0.1195,0.0837,0.0869,0.091,0.0961,0.101,0.1096,0.1148,0.1202,0.1215,0.1256,0.1279,0.1337,0.1239,0.1295,0.1295,0.1296,0.1296,0.1296,0.1296,0.0847,0.0864,0.0932,0.0984,0.106,0.1131,0.1224,0.1256,0.1334,0.1325,0.1341,0.1218,0.13,0.1299,0.1299,0.1298,0.1298,0.1298,0.1297,0.0821,0.0834,0.0888,0.0972,0.1069,0.116,0.1232,0.1308,0.1363,0.1394,0.1297,0.1364,0.135,0.1411,0.1411,0.1411,0.1411,0.1412,0.1412,0.0762,0.0816,0.0854,0.0958,0.1015,0.111,0.1243,0.1288,0.1365,0.1318,0.1409,0.1376,0.1372,0.1357,0.1414,0.1414,0.1413,0.1413,0.1413,0.0696,0.0733,0.0777,0.0829,0.0948,0.1011,0.1154,0.1225,0.1264,0.1266,0.1277,0.1283,0.1252,0.1251,0.1231,0.1252,0.125,0.1249,0,0.0634,0.0662,0.0703,0.0752,0.0813,0.0938,0.0967,0.1056,0.1141,0.1099,0.1255,0.1264,0.1268,0.1229,0.1226,0.1198,0,0,0,0.0578,0.0609,0.0609,0.0685,0.0746,0.0846,0.097,0.0968,0.1128,0.114,0.1204,0.1215,0.1334,0.1422,0.1389,0.1384,0.1358,0,0]},{"header":{"parameterUnit":"m.s-1","parameterCategory":2,"la1":30.2992,"la2":30.254,"lo1":-89.0895,"lo2":-89.0443,"dy":0.0025,"dx":0.0025,"nx":19,"ny":19,"refTime":"2026-03-09T21:00:00:Z","depth":"4","parameterNumber":3,"parameterNumberName":"V-component_of_CURRENTS"},"data":[0,0,0,0.0034,0.0033,0.0009,0.0009,-0.004,-0.004,0,0,0,0,0,0,0,0,0,0,0,0.0044,0.0044,0.0034,0.0033,0.0009,0.0009,-0.004,-0.004,0,0,0,0,0,0,0,0,0,0,0,0.0044,0.0044,0.0044,0.0033,0.0009,0.0009,-0.004,-0.0017,0,0,0,0,0,0,0,0,0,0,0.0008,0.0018,0.0044,0.0044,0.0033,0.0009,0.0009,-0.0016,-0.0019,-0.0034,0,-0.0035,0,-0.004,-0.0044,-0.0044,0,0,0,0.0032,0.002,0.0016,0.0044,0.0033,0.0009,0.0019,-0.0017,-0.0021,-0.0037,-0.0035,-0.0037,-0.004,-0.0044,-0.0044,-0.008,-0.008,0,0,0.0033,0.0035,0.0019,0.0015,0.0029,0.002,0.0019,-0.0019,-0.0023,-0.0035,-0.0038,-0.0041,-0.0045,-0.0045,-0.008,-0.008,0,0,0,0.0038,0.0036,0.0034,0.0017,0.0013,0.002,0.0018,-0.0021,-0.0021,-0.0039,-0.0042,-0.0045,-0.0045,-0.008,-0.008,-0.0065,0,0,0,0.0039,0.0039,0.0034,0.0035,0.0014,-0.0003,0.0016,-0.0019,-0.0023,-0.0041,-0.0045,-0.0046,-0.008,-0.008,-0.0065,-0.0061,0,0,0,0.0045,0.004,0.0039,0.0035,0.0026,-0.0002,-0.0005,-0.002,-0.0025,-0.0044,-0.0046,-0.008,-0.008,-0.0065,-0.0062,-0.0079,0,0,0,0.0046,0.0051,0.0039,0.0045,0.0026,0.0025,-0.0004,-0.0012,-0.0024,-0.0045,-0.008,-0.008,-0.0066,-0.0062,-0.0079,-0.001,0,0,0,0.0056,0.0052,0.0058,0.0046,0.0052,0.0028,0.002,-0.001,-0.0031,-0.0069,-0.007,-0.0065,-0.0062,-0.0079,-0.0009,0,0,0,0,0.0064,0.0067,0.0068,0.0066,0.0059,0.0039,0.0014,-0.0008,-0.0043,-0.0039,-0.0069,-0.0068,-0.0079,-0.0038,-0.008,-0.008,-0.008,-0.008,-0.008,0.0071,0.0074,0.0081,0.008,0.0076,0.0046,0.0024,-0.0014,-0.003,-0.0046,-0.0058,-0.0064,-0.002,-0.006,-0.006,-0.006,-0.006,-0.006,-0.006,0.0081,0.0073,0.0086,0.0094,0.0077,0.0067,0.0021,-0.0001,-0.0048,-0.0054,-0.0066,-0.0028,-0.0058,-0.0058,-0.0059,-0.0059,-0.0059,-0.0059,-0.0059,0.0073,0.0064,0.0085,0.0084,0.0084,0.0066,0.0047,0.0005,-0.0035,-0.0049,-0.0021,-0.0063,-0.0063,-0.0058,-0.0058,-0.0058,-0.0058,-0.0058,-0.0058,0.0031,0.0052,0.0054,0.0064,0.0071,0.0071,0.0051,0.0037,-0.0004,-0.0002,-0.0049,-0.0064,-0.0064,-0.0064,-0.0059,-0.0059,-0.0059,-0.0058,-0.0058,-0.0014,-0.0004,0.0014,0.0025,0.0051,0.0071,0.0058,0.0075,0.005,0.0042,0.0015,0.0011,0.0006,0.0004,0.0007,0.0033,0.0034,0.0035,0,-0.0059,-0.0052,-0.0003,0.0035,0.0063,0.0081,0.011,0.0114,0.0077,0.0081,0.0023,-0.0009,-0.001,-0.0017,-0.0017,-0.0014,0,0,0,-0.0099,-0.0062,-0.0013,0.0053,0.0098,0.0126,0.0132,0.0147,0.0076,0.0111,0.0057,0.0051,0.001,-0.0061,-0.0077,-0.0078,-0.0078,0,0]}]]